Location: Maiden_LMO
(35.5760°N, 81.2120°W)
Time: 21:22:15
(UTC-04:00)

ADEOS II - Visible Passes

Search period start: 29 August 2016 00:00
Search period end: 08 September 2016 00:00
Orbit: 799 x 802 km, 98.3° (Epoch: 28 August)

Date Brightness Start Highest point End Pass type
(mag) Time Alt. Az. Time Alt. Az. Time Alt. Az.
29 Aug 4.0 04:56:40 10° NE 05:01:08 28° E 05:05:35 10° SSE visible
30 Aug 4.7 04:31:36 10° ENE 04:34:35 15° E 04:37:34 10° SE visible
30 Aug 2.2 06:09:28 10° N 06:14:36 55° WNW 06:19:43 10° SSW visible
31 Aug 2.2 05:43:02 10° NNE 05:48:19 83° ESE 05:53:35 10° S visible
01 Sep 3.1 05:16:55 10° NNE 05:21:57 45° E 05:26:57 10° S visible
02 Sep 4.1 04:51:12 10° NE 04:55:28 25° E 04:59:42 10° SSE visible
02 Sep 2.8 06:30:29 10° N 06:35:11 34° WNW 06:39:53 10° SW visible
03 Sep 4.8 04:26:24 10° ENE 04:28:54 13° E 04:31:23 10° ESE visible
03 Sep 2.1 06:03:48 10° N 06:08:59 62° WNW 06:14:09 10° SSW visible
04 Sep 2.3 05:37:25 10° NNE 05:42:41 74° ESE 05:47:55 10° S visible
05 Sep 3.3 05:11:21 10° NNE 05:16:17 40° E 05:21:11 10° SSE visible
06 Sep 4.3 04:45:45 10° NE 04:49:47 22° E 04:53:48 10° SE visible
06 Sep 2.6 06:24:45 10° N 06:29:35 38° WNW 06:34:25 10° SW visible
07 Sep 4.9 04:21:23 10° ENE 04:23:12 12° E 04:25:01 10° ESE visible
07 Sep 2.0 05:58:07 10° N 06:03:22 70° WNW 06:08:35 10° SSW visible
